Location: Lane
(33.5226°N, 79.8788°W)
Time: 22:00:23
(UTC+00:00)

Tiros 1 - Pass Details

Date: 10 October 2022
Orbit: 629 x 662 km, 48.4° (Epoch: 08 December)

Event Time Altitude Azimuth Distance (km) Brightness Sun altitude
Rises 00:47:48 0° 221° (SW) 2,963 11.0 -24.6°
Reaches altitude 10° 00:50:08 10° 217° (SW) 2,059 10.0 -25.1°
Enters shadow 00:53:27 42° 197° (SSW) 935 7.9 -25.8°
